Watertown, NY

1:38 PM EST on November 13, 2019 (GMT -0500)
Watertown International

Weather History for KART - September, 2019

Change the Weather History Date:

Sunday, September 8, 2019

  Actual Average Record
Temperature  
Mean Temperature 56 °F 62 °F  
Max Temperature 66 °F 73 °F 88 °F (1964)
Min Temperature 46 °F 51 °F 32 °F (1990)
Degree Days  
Heating Degree Days 9 4  
Month to date heating degree days 33 28  
Since 1 July heating degree days 62 100  
Cooling Degree Days 0 2  
Month to date cooling degree days 4 16  
Year to date cooling degree days 325 340  
Growing Degree Days 5 (Base 50)    
Moisture  
Dew Point 51 °F    
Average Humidity 78    
Maximum Humidity 93    
Minimum Humidity 63    
Precipitation  
Precipitation 0.00 in 0.10 in 1.00 in (1987)
Month to date precipitation 1.92 0.86  
Year to date precipitation 30.01 22.66  
Sea Level Pressure  
Sea Level Pressure 30.06 in    
Wind  
Wind Speed 4 mph (NW)    
Max Wind Speed 12 mph    
Max Gust Speed 15 mph    
Visibility 10 miles    
Events      
T = Trace of Precipitation, MM = Missing Value Source: NWS Daily Summary

Daily Weather History Graph

Daily Weather History Graph

Search for Another Location

Airport or City:

Astronomy

Sep. 08, 2019 Rise Set
Actual Time 6:35 AM EDT 7:27 PM EDT
Civil Twilight 6:05 AM EDT 7:57 PM EDT
Nautical Twilight 5:30 AM EDT 8:31 PM EDT
Astronomical Twilight 4:54 AM EDT 9:08 PM EDT
Moon 4:44 PM EDT (9/8) 1:02 AM EDT (9/8)
Length of Visible Light 13h 51m
Length of Day
12h 52m
Waxing Gibbous, 75% of the Moon is Illuminated
Sep 8
Waxing Gibbous
Sep 14
Full
Sep 21
Last Quarter
Sep 28
New
Oct 5
First Quarter

Hourly Weather History & Observations

Time (EDT) Temp. Dew Point Humidity Pressure Visibility Wind Dir Wind Speed Gust Speed Precip Events Conditions
12:56 AM 55.0 °F 51.1 °F 86% 29.88 in 10.0 mi West 5.8 mph - N/A   Clear
1:56 AM 55.0 °F 51.1 °F 86% 29.91 in 10.0 mi West 4.6 mph - N/A   Clear
2:56 AM 53.1 °F 50.0 °F 89% 29.91 in 10.0 mi West 3.5 mph - N/A   Clear
3:56 AM 53.1 °F 50.0 °F 89% 29.92 in 10.0 mi West 3.5 mph - N/A   Clear
4:56 AM 50.0 °F 48.0 °F 93% 29.95 in 10.0 mi South 3.5 mph - N/A   Clear
5:56 AM 48.0 °F 46.9 °F 96% 29.98 in 10.0 mi Calm Calm - N/A   Clear
6:22 AM 46.9 °F 46.0 °F 97% 29.99 in 9.0 mi Calm Calm - N/A   Mostly Cloudy
6:31 AM 50.0 °F 48.0 °F 93% 30.00 in 10.0 mi NNE 4.6 mph - N/A   Overcast
6:56 AM 54.0 °F 52.0 °F 93% 30.01 in 10.0 mi Calm Calm - N/A   Overcast
7:56 AM 55.0 °F 52.0 °F 89% 30.02 in 10.0 mi Calm Calm - N/A   Overcast
8:20 AM 55.9 °F 53.1 °F 90% 30.03 in 10.0 mi Calm Calm - N/A   Overcast
8:56 AM 57.0 °F 52.0 °F 83% 30.05 in 10.0 mi Calm Calm - N/A   Overcast
9:34 AM 59.0 °F 52.0 °F 78% 30.06 in 10.0 mi Calm Calm - N/A   Scattered Clouds
9:56 AM 61.0 °F 53.1 °F 75% 30.06 in 10.0 mi North 3.5 mph - N/A   Mostly Cloudy
10:23 AM 59.0 °F 51.1 °F 75% 30.06 in 10.0 mi NNE 5.8 mph - N/A   Overcast
10:47 AM 60.1 °F 53.1 °F 78% 30.07 in 10.0 mi Variable 3.5 mph - N/A   Mostly Cloudy
10:56 AM 59.0 °F 52.0 °F 78% 30.08 in 10.0 mi Calm Calm - N/A   Mostly Cloudy
11:08 AM 59.0 °F 52.0 °F 78% 30.08 in 10.0 mi Calm Calm - N/A   Overcast
11:41 AM 62.1 °F 53.1 °F 72% 30.08 in 10.0 mi Calm Calm - N/A   Overcast
11:54 AM 60.8 °F 51.8 °F 72% 30.08 in 10.0 mi West 3.5 mph - N/A   Overcast
11:56 AM 61.0 °F 51.1 °F 70% 30.08 in 10.0 mi West 4.6 mph - N/A   Overcast
12:34 PM 62.1 °F 52.0 °F 70% 30.08 in 10.0 mi West 4.6 mph - N/A   Overcast
12:56 PM 62.1 °F 52.0 °F 70% 30.08 in 10.0 mi West 5.8 mph - N/A   Overcast
1:56 PM 63.0 °F 52.0 °F 67% 30.09 in 10.0 mi West 5.8 mph - N/A   Overcast
2:56 PM 63.0 °F 52.0 °F 67% 30.09 in 10.0 mi West 9.2 mph - N/A   Overcast
3:33 PM 64.0 °F 52.0 °F 65% 30.10 in 10.0 mi North 5.8 mph - N/A   Overcast
3:56 PM 64.0 °F 51.1 °F 63% 30.10 in 10.0 mi West 4.6 mph - N/A   Overcast
4:56 PM 64.0 °F 51.1 °F 63% 30.11 in 10.0 mi WNW 5.8 mph - N/A   Overcast
5:56 PM 63.0 °F 51.1 °F 65% 30.13 in 10.0 mi NW 3.5 mph - N/A   Overcast
6:56 PM 61.0 °F 52.0 °F 72% 30.14 in 10.0 mi Calm Calm - N/A   Scattered Clouds
7:56 PM 59.0 °F 51.1 °F 75% 30.16 in 10.0 mi NNE 6.9 mph - N/A   Overcast
8:56 PM 55.9 °F 48.9 °F 77% 30.18 in 10.0 mi NE 5.8 mph - N/A   Mostly Cloudy
9:56 PM 55.0 °F 46.9 °F 74% 30.20 in 10.0 mi NE 10.4 mph - N/A   Mostly Cloudy
10:56 PM 54.0 °F 46.9 °F 77% 30.22 in 10.0 mi NE 6.9 mph - N/A   Overcast
11:56 PM 54.0 °F 45.0 °F 72% 30.24 in 10.0 mi NNE 9.2 mph - N/A   Overcast